Location: Lane
(33.5226°N, 79.8788°W)
Time: 13:55:19
(UTC+00:00)

SR - Pass Details

Date: 05 October 2022
Orbit: 577 x 874 km, 66.7° (Epoch: 01 December)

Event Time Altitude Azimuth Distance (km) Brightness Sun altitude
Rises 01:31:59 0° 214° (SW) 3,387 ? -32.2°
Reaches altitude 10° 01:34:27 10° 218° (SW) 2,480 ? -32.7°
Enters shadow 01:38:02 38° 236° (SW) 1,304 ? -33.4°
Maximum altitude 01:40:10 61° 298° (WNW) 987 - -33.8°
Drops below altitude 10° 01:46:01 10° 19° (NNE) 2,523 - -35.0°
Sets 01:48:32 0° 23° (NNE) 3,450 - -35.5°
